Time,TemperatureF,DewpointF,PressureIn,WindDirection,WindDirectionDegrees,WindSpeedMPH,WindSpeedGustMPH,Humidity,HourlyPrecipIn,Conditions,Clouds,dailyrainin,SoftwareType,DateUTC
2013-03-20 00:22:00,35.5,11.0,29.98,South,174,1.0,8.0,37,0.00,,,0.02,weatherlink.com 1.10,2013-03-20 04:22:00,
2013-03-20 00:37:00,35.4,11.0,29.98,South,176,0.0,6.0,37,0.00,,,0.00,weatherlink.com 1.10,2013-03-20 04:37:00,
2013-03-20 00:52:00,35.0,12.0,29.99,South,173,0.0,4.0,38,0.00,,,0.00,weatherlink.com 1.10,2013-03-20 04:52:00,
2013-03-20 01:07:00,34.9,11.0,29.98,South,173,2.0,6.0,38,0.00,,,0.00,weatherlink.com 1.10,2013-03-20 05:07:00,
2013-03-20 01:22:00,34.8,11.0,29.98,South,173,4.0,7.0,37,0.00,,,0.00,weatherlink.com 1.10,2013-03-20 05:22:00,
2013-03-20 01:37:00,34.5,11.0,29.98,SSE,168,2.0,8.0,38,0.00,,,0.00,weatherlink.com 1.10,2013-03-20 05:37:00,
2013-03-20 01:52:00,34.1,11.0,29.97,South,170,3.0,6.0,39,0.00,,,0.00,weatherlink.com 1.10,2013-03-20 05:52:00,
2013-03-20 02:07:00,34.1,11.0,29.97,South,174,2.0,9.0,38,0.00,,,0.00,weatherlink.com 1.10,2013-03-20 06:07:00,
2013-03-20 02:22:00,34.0,11.0,29.97,South,174,2.0,5.0,38,0.00,,,0.00,weatherlink.com 1.10,2013-03-20 06:22:00,
2013-03-20 02:37:00,33.9,10.0,29.97,South,174,0.0,4.0,37,0.00,,,0.00,weatherlink.com 1.10,2013-03-20 06:37:00,
2013-03-20 02:53:00,33.7,10.0,29.96,South,169,2.0,10.0,37,0.00,,,0.00,weatherlink.com 1.10,2013-03-20 06:53:00,
2013-03-20 03:07:00,33.6,9.0,29.96,South,170,4.0,6.0,36,0.00,,,0.00,weatherlink.com 1.10,2013-03-20 07:07:00,
2013-03-20 03:23:00,33.3,9.0,29.96,South,174,1.0,7.0,37,0.00,,,0.00,weatherlink.com 1.10,2013-03-20 07:23:00,
2013-03-20 03:38:00,33.5,8.0,29.95,South,177,1.0,8.0,35,0.00,,,0.00,weatherlink.com 1.10,2013-03-20 07:38:00,
2013-03-20 03:53:00,33.2,8.0,29.95,South,174,1.0,6.0,35,0.00,,,0.00,weatherlink.com 1.10,2013-03-20 07:53:00,
2013-03-20 04:08:00,33.1,8.0,29.94,South,175,2.0,7.0,35,0.00,,,0.00,weatherlink.com 1.10,2013-03-20 08:08:00,
2013-03-20 04:23:00,32.8,9.0,29.94,South,172,2.0,6.0,37,0.00,,,0.00,weatherlink.com 1.10,2013-03-20 08:23:00,
2013-03-20 04:38:00,32.3,9.0,29.93,South,172,1.0,5.0,38,0.00,,,0.00,weatherlink.com 1.10,2013-03-20 08:38:00,
2013-03-20 04:53:00,32.1,10.0,29.94,South,169,2.0,8.0,39,0.00,,,0.00,weatherlink.com 1.10,2013-03-20 08:53:00,
2013-03-20 05:08:00,32.0,9.0,29.94,South,172,1.0,7.0,38,0.00,,,0.00,weatherlink.com 1.10,2013-03-20 09:08:00,
2013-03-20 05:23:00,31.8,9.0,29.93,South,171,3.0,7.0,38,0.00,,,0.00,weatherlink.com 1.10,2013-03-20 09:23:00,
2013-03-20 05:38:00,31.6,9.0,29.93,South,172,1.0,7.0,38,0.00,,,0.00,weatherlink.com 1.10,2013-03-20 09:38:00,
2013-03-20 05:53:00,31.3,9.0,29.93,South,173,0.0,6.0,39,0.00,,,0.00,weatherlink.com 1.10,2013-03-20 09:53:00,
2013-03-20 06:08:00,31.0,9.0,29.94,South,172,0.0,6.0,40,0.00,,,0.00,weatherlink.com 1.10,2013-03-20 10:08:00,
2013-03-20 06:23:00,30.7,9.0,29.95,South,170,0.0,7.0,40,0.00,,,0.00,weatherlink.com 1.10,2013-03-20 10:23:00,
2013-03-20 06:38:00,30.7,9.0,29.96,South,174,1.0,8.0,40,0.00,,,0.00,weatherlink.com 1.10,2013-03-20 10:38:00,
2013-03-20 06:53:00,30.7,9.0,29.95,South,171,2.0,7.0,40,0.00,,,0.00,weatherlink.com 1.10,2013-03-20 10:53:00,
2013-03-20 07:08:00,30.5,9.0,29.96,South,170,1.0,11.0,41,0.00,,,0.00,weatherlink.com 1.10,2013-03-20 11:08:00,
2013-03-20 07:23:00,30.4,9.0,29.96,SSE,167,0.0,8.0,41,0.00,,,0.00,weatherlink.com 1.10,2013-03-20 11:23:00,
2013-03-20 07:38:00,30.3,9.0,29.97,South,171,1.0,8.0,41,0.00,,,0.00,weatherlink.com 1.10,2013-03-20 11:38:00,
2013-03-20 07:53:00,30.4,10.0,29.97,SSE,167,2.0,10.0,42,0.00,,,0.00,weatherlink.com 1.10,2013-03-20 11:53:00,
2013-03-20 08:08:00,30.5,10.0,29.98,South,171,2.0,8.0,43,0.00,,,0.00,weatherlink.com 1.10,2013-03-20 12:08:00,
2013-03-20 08:23:00,30.4,10.0,29.98,South,173,6.0,10.0,42,0.00,,,0.00,weatherlink.com 1.10,2013-03-20 12:23:00,
2013-03-20 08:38:00,30.6,10.0,29.99,South,173,2.0,5.0,42,0.00,,,0.00,weatherlink.com 1.10,2013-03-20 12:38:00,
2013-03-20 08:53:00,30.6,10.0,29.98,South,171,2.0,8.0,43,0.00,,,0.00,weatherlink.com 1.10,2013-03-20 12:53:00,
2013-03-20 09:08:00,31.0,11.0,29.99,South,172,1.0,7.0,43,0.00,,,0.00,weatherlink.com 1.10,2013-03-20 13:08:00,
2013-03-20 09:23:00,31.8,10.0,29.99,South,174,2.0,8.0,41,0.00,,,0.00,weatherlink.com 1.10,2013-03-20 13:23:00,
2013-03-20 09:38:00,32.4,10.0,29.99,South,174,1.0,6.0,40,0.00,,,0.00,weatherlink.com 1.10,2013-03-20 13:38:00,
2013-03-20 09:53:00,33.7,10.0,29.99,South,174,1.0,5.0,38,0.00,,,0.00,weatherlink.com 1.10,2013-03-20 13:53:00,
2013-03-20 10:08:00,34.2,11.0,29.99,South,174,0.0,5.0,38,0.00,,,0.00,weatherlink.com 1.10,2013-03-20 14:08:00,
2013-03-20 10:23:00,34.7,10.0,29.99,South,172,0.0,6.0,36,0.00,,,0.00,weatherlink.com 1.10,2013-03-20 14:23:00,
2013-03-20 10:38:00,35.5,10.0,29.99,South,169,0.0,6.0,35,0.00,,,0.00,weatherlink.com 1.10,2013-03-20 14:38:00,
2013-03-20 10:53:00,36.5,10.0,29.99,South,169,2.0,4.0,34,0.00,,,0.00,weatherlink.com 1.10,2013-03-20 14:53:00,
2013-03-20 11:08:00,36.6,8.0,29.99,SSE,167,2.0,8.0,30,0.00,,,0.00,weatherlink.com 1.10,2013-03-20 15:08:00,
2013-03-20 11:23:00,37.6,9.0,29.99,South,170,3.0,8.0,31,0.00,,,0.00,weatherlink.com 1.10,2013-03-20 15:23:00,
2013-03-20 11:38:00,39.2,9.0,29.99,South,172,4.0,7.0,29,0.00,,,0.00,weatherlink.com 1.10,2013-03-20 15:38:00,
2013-03-20 11:53:00,39.5,8.0,29.98,South,169,5.0,10.0,27,0.00,,,0.00,weatherlink.com 1.10,2013-03-20 15:53:00,
2013-03-20 12:08:00,41.3,9.0,29.97,South,174,2.0,12.0,26,0.00,,,0.00,weatherlink.com 1.10,2013-03-20 16:08:00,
2013-03-20 12:24:00,42.2,10.0,29.97,South,170,2.0,13.0,27,0.00,,,0.00,weatherlink.com 1.10,2013-03-20 16:24:00,
2013-03-20 12:39:00,43.1,11.0,29.95,SSE,166,8.0,12.0,27,0.00,,,0.00,weatherlink.com 1.10,2013-03-20 16:39:00,
2013-03-20 12:54:00,42.8,12.0,29.95,South,173,2.0,13.0,28,0.00,,,0.00,weatherlink.com 1.10,2013-03-20 16:54:00,
2013-03-20 13:09:00,43.7,12.0,29.94,SSE,167,7.0,12.0,28,0.00,,,0.00,weatherlink.com 1.10,2013-03-20 17:09:00,
2013-03-20 13:24:00,44.2,12.0,29.93,South,175,4.0,11.0,27,0.00,,,0.00,weatherlink.com 1.10,2013-03-20 17:24:00,
2013-03-20 13:39:00,44.3,10.0,29.92,South,172,2.0,13.0,25,0.00,,,0.00,weatherlink.com 1.10,2013-03-20 17:39:00,
2013-03-20 13:54:00,45.3,11.0,29.91,South,169,2.0,10.0,25,0.00,,,0.00,weatherlink.com 1.10,2013-03-20 17:54:00,
2013-03-20 14:09:00,46.1,13.0,29.90,South,170,2.0,12.0,26,0.00,,,0.00,weatherlink.com 1.10,2013-03-20 18:09:00,
2013-03-20 14:24:00,46.3,11.0,29.89,South,173,2.0,11.0,24,0.00,,,0.00,weatherlink.com 1.10,2013-03-20 18:24:00,
2013-03-20 14:39:00,47.1,13.0,29.87,South,174,2.0,7.0,25,0.00,,,0.00,weatherlink.com 1.10,2013-03-20 18:39:00,
2013-03-20 14:54:00,47.3,12.0,29.86,South,174,2.0,13.0,24,0.00,,,0.00,weatherlink.com 1.10,2013-03-20 18:54:00,
2013-03-20 15:09:00,48.9,11.0,29.85,South,170,1.0,9.0,22,0.00,,,0.00,weatherlink.com 1.10,2013-03-20 19:09:00,
2013-03-20 15:24:00,48.1,12.0,29.84,South,173,6.0,10.0,23,0.00,,,0.00,weatherlink.com 1.10,2013-03-20 19:24:00,
2013-03-20 15:39:00,45.5,10.0,29.82,South,172,2.0,11.0,23,0.00,,,0.00,weatherlink.com 1.10,2013-03-20 19:39:00,
2013-03-20 15:54:00,44.7,11.0,29.82,South,170,4.0,6.0,25,0.00,,,0.00,weatherlink.com 1.10,2013-03-20 19:54:00,
2013-03-20 16:09:00,44.4,12.0,29.81,SSE,167,3.0,4.0,27,0.00,,,0.00,weatherlink.com 1.10,2013-03-20 20:09:00,
2013-03-20 16:24:00,45.8,12.0,29.81,South,172,3.0,12.0,25,0.00,,,0.00,weatherlink.com 1.10,2013-03-20 20:24:00,
2013-03-20 16:39:00,46.7,11.0,29.80,South,170,5.0,11.0,24,0.00,,,0.00,weatherlink.com 1.10,2013-03-20 20:39:00,
2013-03-20 16:54:00,46.7,14.0,29.80,South,173,2.0,10.0,27,0.00,,,0.00,weatherlink.com 1.10,2013-03-20 20:54:00,
2013-03-20 17:09:00,46.3,14.0,29.80,South,172,1.0,6.0,27,0.00,,,0.00,weatherlink.com 1.10,2013-03-20 21:09:00,
2013-03-20 17:24:00,45.7,12.0,29.79,SSE,166,2.0,14.0,25,0.00,,,0.00,weatherlink.com 1.10,2013-03-20 21:24:00,
2013-03-20 17:39:00,46.0,13.0,29.79,South,172,1.0,11.0,26,0.00,,,0.00,weatherlink.com 1.10,2013-03-20 21:39:00,
2013-03-20 17:54:00,46.0,12.0,29.79,South,174,0.0,5.0,25,0.00,,,0.00,weatherlink.com 1.10,2013-03-20 21:54:00,
2013-03-20 18:09:00,45.8,12.0,29.78,South,169,4.0,8.0,25,0.00,,,0.00,weatherlink.com 1.10,2013-03-20 22:09:00,
2013-03-20 18:24:00,45.0,11.0,29.78,South,169,1.0,8.0,25,0.00,,,0.00,weatherlink.com 1.10,2013-03-20 22:24:00,
2013-03-20 18:40:00,44.3,10.0,29.78,South,170,1.0,8.0,25,0.00,,,0.00,weatherlink.com 1.10,2013-03-20 22:40:00,
2013-03-20 18:55:00,43.3,11.0,29.77,South,170,2.0,8.0,27,0.00,,,0.00,weatherlink.com 1.10,2013-03-20 22:55:00,
2013-03-20 19:10:00,41.4,11.0,29.77,South,170,1.0,3.0,29,0.00,,,0.00,weatherlink.com 1.10,2013-03-20 23:10:00,
2013-03-20 19:25:00,40.3,10.0,29.77,South,170,0.0,4.0,29,0.00,,,0.00,weatherlink.com 1.10,2013-03-20 23:25:00,
2013-03-20 19:40:00,39.6,12.0,29.77,South,169,2.0,8.0,32,0.00,,,0.00,weatherlink.com 1.10,2013-03-20 23:40:00,
2013-03-20 19:56:00,39.3,12.0,29.77,SSE,166,1.0,8.0,32,0.00,,,0.00,weatherlink.com 1.10,2013-03-20 23:56:00,
2013-03-20 20:10:00,39.2,11.0,29.77,South,172,2.0,10.0,32,0.00,,,0.00,weatherlink.com 1.10,2013-03-21 00:10:00,
2013-03-20 20:25:00,38.9,13.0,29.77,South,173,1.0,15.0,34,0.00,,,0.00,weatherlink.com 1.10,2013-03-21 00:25:00,
2013-03-20 20:40:00,38.7,13.0,29.77,South,169,2.0,12.0,35,0.00,,,0.00,weatherlink.com 1.10,2013-03-21 00:40:00,
2013-03-20 20:55:00,38.1,14.0,29.77,South,170,2.0,8.0,38,0.00,,,0.00,weatherlink.com 1.10,2013-03-21 00:55:00,
2013-03-20 21:10:00,37.6,16.0,29.77,South,170,1.0,6.0,41,0.00,,,0.00,weatherlink.com 1.10,2013-03-21 01:10:00,
2013-03-20 21:25:00,37.4,17.0,29.77,South,169,4.0,7.0,43,0.00,,,0.00,weatherlink.com 1.10,2013-03-21 01:25:00,
2013-03-20 21:40:00,37.1,17.0,29.77,South,172,1.0,12.0,44,0.00,,,0.00,weatherlink.com 1.10,2013-03-21 01:40:00,
2013-03-20 21:55:00,37.0,17.0,29.77,South,174,0.0,7.0,45,0.00,,,0.00,weatherlink.com 1.10,2013-03-21 01:55:00,
2013-03-20 22:10:00,36.2,20.0,29.77,South,174,4.0,9.0,53,0.00,,,0.00,weatherlink.com 1.10,2013-03-21 02:10:00,
2013-03-20 22:25:00,34.7,22.0,29.77,South,173,2.0,18.0,60,0.00,,,0.00,weatherlink.com 1.10,2013-03-21 02:25:00,
2013-03-20 22:40:00,33.1,24.0,29.78,South,176,1.0,7.0,69,0.00,,,0.00,weatherlink.com 1.10,2013-03-21 02:40:00,
2013-03-20 22:55:00,32.6,24.0,29.78,South,174,2.0,15.0,72,0.00,,,0.00,weatherlink.com 1.10,2013-03-21 02:55:00,
2013-03-20 23:10:00,32.1,25.0,29.78,South,172,6.0,10.0,76,0.00,,,0.00,weatherlink.com 1.10,2013-03-21 03:10:00,
2013-03-20 23:25:00,30.5,27.0,29.78,South,173,6.0,12.0,86,0.00,,,0.00,weatherlink.com 1.10,2013-03-21 03:25:00,
2013-03-20 23:40:00,29.5,27.0,29.77,South,173,0.0,9.0,90,0.00,,,0.00,weatherlink.com 1.10,2013-03-21 03:40:00,
2013-03-20 23:55:00,28.4,25.0,29.77,South,176,4.0,10.0,85,0.00,,,0.00,weatherlink.com 1.10,2013-03-21 03:55:00,